ARIANE 42P DEB, 44513

Orbit data source: Space-Track

ARIANE 42P DEB, 44513 is space debris in LEO originally from a launch on Mon, 10 Aug 1992 UTC launched from the French Guiana (FRGUI). Debris objects in space refer to the collection of defunct objects orbiting the Earth. Examples of debris include non-operational satellites, rocket bodies, and fragments generated from explosions, collisions, or faulty payload assembly.

Loading next visibility...
Identifier
44513, 1992-052L
Orbit
LEO
Last TLE update
1 week ago
Origin
Manufacturer
ArianeGroup
Mission
Spacecraft
Bus & Motor
Unknown
Mass
Unknown
Launch date (UTC)
1992-08-10 (33 years ago)
Launch vehicle
Unknown
Launch site
French Guiana (FRGUI)
Object type
Payload
Rocket body
Debris
Shape & HBR
Unknown
Radar Cross Section
Small (<0.1 m²)

Expand to show TLE details & history

TLE from 1 week ago
0 ARIANE 42P DEB
1 44513U 92052L   25174.16372646 -.00000402  00000-0 -15048-2 0  9997
2 44513  66.0389 326.4237 0047123 127.4993 233.0319 12.79374260272788
Epoch: 2025-06-23T03:55Z
TLE epoch observation values (Epoch: 2025-06-23T03:55:45.966Z)
Latitude
-0.00005°
Longitude
-4.09579°
Altitude
1,367.89 km
Speed
7.165 km/s
True Right ascension
21h 45m 41s
True Declination
0° 00' 00"
Sunlit
Object was in daylight at epoch
Visualization orbit readout
Latitude
63.16895°
Longitude
94.83297°
Altitude
1,319.869 km
Speed
7.219 km/s
Apparent Right ascension
23h 38m 40s
Apparent Declination
30° 07' 01"
Sunlit
Object is in daylight
Visualization observer readout
Local Sidereal Time
08:50:08
Azimuth
323.924° NNW
Elevation
-9.79°
Doppler factor
1
Orbital elements
Apogee altitude
1,378.933 km
Perigee altitude
1,306.169 km
Semi-major axis
7,720.688 km
Eccentricity
0.00471
Inclination
66.0389°
RAAN
326.4237°
Arg. of periapsis
127.4993°
True anomaly
Unknown
Mean anomaly
233.0319°
Eccentric anomaly
Unknown
Mean motion
3.19933 °/min
Orbital period
112.52 mins
BSTAR
-0.0015048
Loading maneuver chart data...
Loading SW <> Apogee altitude chart data...
Loading historical data...
Loading historical data...
Loading historical data...
Loading historical data...
Loading historical data...
Loading historical data...
Loading historical data...

ARIANE 42P DEB Visibility forecast

Observer location: undefined°, undefined°

Span
Click to sort rows by Start time (UTC) header in descending order
Start Az.
Max El. time (UTC)
Max El. Az.
Max El.
End time (UTC)
End Az.
7 mins2025-07-02 21:14:59.712Z288.005° WNW2025-07-02 21:18:59.712Z256.805° W14.034°2025-07-02 21:21:59.712Z233.628° WSW
7 mins2025-07-03 07:57:59.712Z123.521° SE2025-07-03 08:00:59.712Z99.343° ESE15.304°2025-07-03 08:04:59.712Z68.679° E
14 mins2025-07-03 09:48:59.712Z204.464° SW2025-07-03 09:55:59.712Z77.415° E44.765°2025-07-03 10:02:59.712Z31.615° NE
11 mins2025-07-03 11:47:59.712Z275.591° WNW2025-07-03 11:52:59.712Z322.462° NNW23.545°2025-07-03 11:58:59.712Z12.619° NNE
4 mins2025-07-03 15:51:59.712Z12.694° NNE2025-07-03 15:52:59.712Z20.512° NNE12.227°2025-07-03 15:55:59.712Z43.327° NE
13 mins2025-07-03 17:45:59.712Z346.793° N2025-07-03 17:51:59.712Z50.074° ENE32.24°2025-07-03 17:58:59.712Z114.669° SE
13 mins2025-07-03 19:41:59.712Z316.212° NNW2025-07-03 19:47:59.712Z250.528° W37.53°2025-07-03 19:54:59.712Z177.84° S
|